Location: Ab? ar R?sh Ba?r?
(24.1861°N, 32.8847°E)
Time: 11:30:15
(UTC+00:00)

Cosmos 2173 Rocket - Pass Details

Date: 24 October 2021
Orbit: 945 x 1000 km, 83.0° (Epoch: 04 December)

Event Time Altitude Azimuth Distance (km) Brightness Sun altitude
Rises 16:39:27 0° 172° (S) 3,613 6.9 -20.0°
Reaches altitude 10° 16:41:59 10° 167° (SSE) 2,676 6.2 -20.6°
Maximum altitude 16:47:54 54° 91° (E) 1,159 4.0 -21.9°
Drops below altitude 10° 16:53:56 10° 16° (NNE) 2,721 6.1 -23.3°
Sets 16:56:31 0° 12° (NNE) 3,679 6.9 -23.9°
